Location: Santa Maria di Sala
(45.5070°N, 12.0300°E)
Time: 08:46:52
(UTC+02:00)

STRAND 1 - Pass Details

Date: 04 March 2024
Orbit: 764 x 779 km, 98.4° (Epoch: 16 April)

Event Time Altitude Azimuth Distance (km) Brightness Sun altitude
Rises 04:18:43 0° 120° (ESE) 3,256 ? -26.0°
Reaches altitude 10° 04:21:40 10° 102° (ESE) 2,333 ? -25.5°
Maximum altitude 04:25:08 19° 60° (ENE) 1,813 ? -25.0°
Drops below altitude 10° 04:28:36 10° 17° (NNE) 2,340 ? -24.4°
Sets 04:31:33 0° 0° (N) 3,271 ? -23.9°
